Location: Shepherdstown, WV
(39.4326°N, 77.8042°W)
Time: 03:14:09
(UTC-04:00)

Explorer 7 - All Passes

Search period start: 24 July 2021 00:00
Search period end: 03 August 2021 00:00
Orbit: 484 x 677 km, 50.3° (Epoch: 23 July)

Date Brightness Start Highest point End Pass type
(mag) Time Alt. Az. Time Alt. Az. Time Alt. Az.
24 Jul - 07:10:50 10° SSE 07:12:27 12° SE 07:14:07 10° ESE daylight
24 Jul - 08:48:23 10° SW 08:52:18 89° NW 08:56:29 10° NE daylight
24 Jul - 10:29:50 10° WNW 10:33:16 25° NNW 10:36:53 10° NE daylight
24 Jul - 12:11:42 10° NW 12:14:54 20° N 12:18:13 10° NE daylight
24 Jul - 13:52:11 10° NW 13:56:21 37° NNE 14:00:43 10° E daylight
24 Jul - 15:32:33 10° WNW 15:37:02 53° SW 15:41:42 10° SE daylight
25 Jul - 07:13:34 10° S 07:16:31 21° SE 07:19:35 10° E daylight
25 Jul - 08:52:47 10° WSW 08:56:40 57° NNW 09:00:47 10° NE daylight
25 Jul - 10:34:39 10° WNW 10:37:51 21° N 10:41:12 10° NE daylight
25 Jul - 12:16:11 10° NW 12:19:31 21° N 12:23:00 10° ENE daylight
25 Jul - 13:56:25 10° NW 14:00:47 51° NNE 14:05:23 10° ESE daylight
25 Jul - 15:37:07 10° WNW 15:41:15 33° SW 15:45:32 10° SSE daylight
26 Jul - 07:17:08 10° SSW 07:20:39 36° SE 07:24:21 10° ENE daylight
26 Jul - 08:57:23 10° W 09:01:05 39° NNW 09:05:01 10° NE daylight
26 Jul - 10:39:27 10° NW 10:42:28 19° N 10:45:38 10° NE daylight
26 Jul - 12:20:32 10° NW 12:24:06 24° NNE 12:27:51 10° ENE daylight
26 Jul - 14:00:42 10° NW 14:05:10 74° NNE 14:09:53 10° ESE daylight
26 Jul - 15:41:57 10° W 15:45:24 21° SW 15:48:56 10° S daylight
27 Jul - 07:21:05 10° SW 07:24:51 62° SE 07:28:51 10° ENE daylight
27 Jul - 09:02:07 10° W 09:05:35 29° NNW 09:09:15 10° NE daylight
27 Jul - 10:44:09 10° NW 10:47:07 19° N 10:50:12 10° NE daylight
27 Jul - 12:24:49 10° NW 12:28:38 30° NNE 12:32:40 10° E daylight
27 Jul - 14:05:02 10° WNW 14:09:29 74° SW 14:14:11 10° SE daylight
27 Jul - 15:47:31 10° WSW 15:49:29 13° SW 15:51:29 10° SSW daylight
28 Jul - 05:47:18 10° SSE 05:49:14 14° SE 05:51:12 10° E daylight
28 Jul - 07:25:20 10° WSW 07:29:09 80° NW 07:33:12 10° NE daylight
28 Jul - 09:06:54 10° WNW 09:10:08 23° NNW 09:13:31 10° NE daylight
28 Jul - 10:48:43 10° NW 10:51:45 19° N 10:54:54 10° NE daylight
28 Jul - 12:29:03 10° NW 12:33:07 39° NNE 12:37:25 10° E daylight
28 Jul - 14:09:26 10° WNW 14:13:44 46° SW 14:18:14 10° SSE daylight
29 Jul - 05:50:17 10° S 05:53:19 23° SE 05:56:27 10° E daylight
29 Jul - 07:29:46 10° WSW 07:33:31 51° NNW 07:37:28 10° NE daylight
29 Jul - 09:11:44 10° WNW 09:14:44 20° N 09:17:51 10° NE daylight
29 Jul - 10:53:08 10° NW 10:56:21 21° NNE 10:59:43 10° ENE daylight
29 Jul - 12:33:17 10° NW 12:37:33 54° NNE 12:42:03 10° ESE daylight
29 Jul - 14:14:03 10° WNW 14:17:56 29° SW 14:21:58 10° SSE daylight
30 Jul - 05:53:56 10° SSW 05:57:28 40° SE 06:01:08 10° ENE daylight
30 Jul - 07:34:24 10° W 07:37:58 35° NNW 07:41:42 10° NE daylight
30 Jul - 09:16:31 10° NW 09:19:21 18° N 09:22:17 10° NE daylight
30 Jul - 10:57:27 10° NW 11:00:56 24° NNE 11:04:34 10° ENE daylight
30 Jul - 12:37:33 10° NW 12:41:54 81° NE 12:46:30 10° ESE daylight
30 Jul - 14:19:01 10° W 14:22:04 18° SW 14:25:13 10° S daylight
31 Jul - 05:57:57 10° SW 06:01:42 70° SE 06:05:36 10° ENE daylight
31 Jul - 07:39:09 10° WNW 07:42:27 26° NNW 07:45:55 10° NE daylight
31 Jul - 09:21:11 10° NW 09:23:59 18° N 09:26:53 10° NE daylight
31 Jul - 11:01:43 10° NW 11:05:26 30° NNE 11:09:23 10° E daylight
31 Jul - 12:41:54 10° WNW 12:46:12 66° SW 12:50:45 10° SE daylight
31 Jul - 14:25:17 10° WSW 14:26:08 10° SW 14:27:00 10° SW daylight
01 Aug - 04:23:48 10° SSE 04:26:01 15° SE 04:28:16 10° E visible
01 Aug - 06:02:15 10° WSW 06:06:00 71° NW 06:09:55 10° NE daylight
01 Aug - 07:43:58 10° WNW 07:47:01 21° NNW 07:50:10 10° NE daylight
01 Aug - 09:25:42 10° NW 09:28:36 19° N 09:31:37 10° NE daylight
01 Aug - 11:05:56 10° NW 11:09:54 40° NNE 11:14:07 10° E daylight
01 Aug - 12:46:22 10° WNW 12:50:26 40° SW 12:54:44 10° SSE daylight
02 Aug - 04:26:58 10° SSW 04:30:07 26° SE 04:33:20 10° ENE visible
02 Aug - 06:06:44 10° WSW 06:10:23 45° NNW 06:14:10 10° NE daylight
02 Aug - 07:48:48 10° NW 07:51:36 18° N 07:54:30 10° NE daylight
02 Aug - 09:30:04 10° NW 09:33:11 21° NNE 09:36:26 10° ENE daylight
02 Aug - 11:10:10 10° NW 11:14:18 58° NNE 11:18:42 10° ESE daylight
02 Aug - 12:51:02 10° WNW 12:54:37 25° SW 12:58:21 10° S daylight
